Location: Dealu Mic
(45.6833°N, 22.7833°E)
Time: 01:07:11
(UTC+00:00)

Daily predictions for brighter satellites

Satellite Brightness Start Highest point End
(mag) Time Altitude Azimuth Time Altitude Azimuth Time Altitude Azimuth
SL-16 R/B 4.3 00:24:55 25° N 00:24:55 25° N 00:27:19 10° N
USA 281 4.4 00:16:06 10° NE 00:20:24 35° ENE 00:20:24 35° ENE
ATLAS CENTAUR R/B 4.0 00:30:37 54° NNE 00:30:37 54° NNE 00:39:21 10° NE
ADEOS II 4.3 00:24:01 10° NNE 00:25:42 20° NNE 00:25:42 20° NNE
CZ-2D R/B 4.3 00:28:36 10° NNE 00:30:15 20° NNE 00:30:15 20° NNE
Cosmos 2082 Rocket 4.5 00:50:59 15° NNW 00:50:59 15° NNW 00:52:36 10° N
COSMOS 2428 4.0 01:01:05 10° NNW 01:06:21 38° NE 01:11:38 10° ESE
USA 215 3.9 01:07:37 10° E 01:13:54 51° NNE 01:16:10 36° NNW
CZ-2C R/B 4.1 01:13:26 10° NE 01:17:24 26° E 01:17:30 26° E
ALOS 4.0 01:15:33 10° NNE 01:17:57 30° NNE 01:17:57 30° NNE
ATLAS 2AS CENTAUR R/B 3.5 01:22:06 43° NNW 01:22:06 43° NNW 01:28:34 10° NNE
Cosmos 1655 Rocket 4.1 01:28:17 75° N 01:28:17 75° N 01:34:04 10° N
SL-08 ROCKET BODY 4.5 01:33:04 74° N 01:33:04 74° N 01:38:34 10° N
CZ-2C R/B 3.3 01:33:20 10° NNE 01:38:52 75° E 01:38:52 75° E
Thor Agena Rocket 4.0 01:36:48 10° NNE 01:40:54 55° N 01:40:54 55° N
USA 229 DEB 4.3 01:36:32 10° NW 01:43:53 66° NE 01:51:50 10° SE
USA 229 4.3 01:36:38 10° NW 01:43:58 65° NE 01:51:54 10° SE
Resurs 1-4 Rocket 4.1 01:42:10 10° N 01:43:36 16° NNW 01:43:36 16° NNW
Meteor 1-14 Rocket 4.2 01:41:01 10° N 01:47:03 89° ENE 01:47:37 75° SSE
Cosmos 1743 Rocket 4.3 01:46:28 10° N 01:50:43 50° ENE 01:50:44 50° ENE
Cosmos 1867 3.6 01:52:32 72° SE 01:52:32 72° SE 01:57:23 10° SE
Cosmos 1805 Rocket 4.3 01:48:53 10° N 01:53:07 50° ENE 01:53:53 44° ESE
Meteor 2-6 Rocket 4.0 01:55:49 88° NW 01:55:49 88° NW 02:01:13 10° N
NOSS 3-1 (A) 4.0 01:55:41 27° NW 02:00:12 64° WSW 02:09:00 10° SSE
Sich 1 3.6 01:57:57 10° N 02:02:14 57° ENE 02:04:47 23° SSE
GP-B 3.7 02:00:52 37° SE 02:02:17 55° E 02:06:38 10° N
Meteor 1-10 Rocket 4.4 02:02:12 33° S 02:04:41 68° E 02:10:12 10° NNE
USA 281 3.6 02:00:41 10° NNE 02:06:48 43° NW 02:07:16 42° WNW
ADEOS II 3.8 02:04:22 10° N 02:06:36 19° NNW 02:06:36 19° NNW
BlueWalker 3 3.2 02:13:44 32° SE 02:13:44 32° SE 02:15:56 10° SE
IRS-1D 3.4 02:07:35 10° NNE 02:12:53 77° WNW 02:13:40 64° SW
YAOGAN 6 3.7 02:09:33 10° NNE 02:11:54 40° NE 02:11:54 40° NE
CZ-2D R/B 4.2 02:10:15 10° NNW 02:11:32 13° NW 02:11:32 13° NW
Cosmos 2315 Rocket 4.4 02:08:01 10° NNW 02:13:09 43° WNW 02:13:09 43° WNW
Envisat 3.0 02:10:19 10° NNE 02:15:25 77° ESE 02:17:37 34° S
Cosmos 2297 Rocket 3.2 02:13:12 14° S 02:17:48 44° ESE 02:23:08 10° NE
TIMED 4.4 02:21:40 65° S 02:22:16 82° ESE 02:26:38 10° NNE
Cosmos 1125 Rocket 3.7 02:25:57 49° WNW 02:26:14 50° WNW 02:31:17 10° NNE
Cosmos 2237 Rocket 2.7 02:22:18 10° NNW 02:27:57 60° ENE 02:33:32 10° SE
Nadezhda 2 Rocket 4.4 02:23:50 23° SSW 02:28:04 76° W 02:34:31 10° N
METEOR-M 4.1 02:25:42 10° N 02:30:59 62° WNW 02:32:41 41° SW
BREEZE-M DEB 3.5 02:32:04 31° NNE 02:32:04 31° NNE 02:33:53 10° ENE
Lacrosse 5 rocket 2.6 02:31:31 27° NNW 02:31:31 27° NNW 02:34:53 10° NE
Cosmos 1536 2.5 02:27:45 10° N 02:31:38 80° W 02:32:05 67° SSW
Cosmos 546 4.4 02:34:57 77° SW 02:35:01 77° SSW 02:38:50 10° ESE
SL-16 R/B 4.3 02:32:22 10° N 02:37:10 27° NE 02:41:57 10° ESE
Cosmos 2322 4.5 02:43:22 31° SW 02:43:22 31° SW 02:47:03 10° S
YAOGAN 11 4.2 02:38:45 10° S 02:43:08 52° W 02:47:29 10° NNW
Okean 1 3.3 02:40:43 19° S 02:43:25 76° E 02:47:16 10° NNE
SL-08 R/B 4.4 02:41:15 12° SSW 02:46:59 67° W 02:53:05 10° N
Nadezhda 1 Rocket 4.0 02:41:16 10° N 02:47:35 89° E 02:53:46 10° S
COBE Rocket 3.8 02:43:45 10° N 02:48:35 71° WNW 02:52:53 14° SSW
NOSS 0 Rocket 3.9 02:43:20 10° NNW 02:49:31 62° WSW 02:55:39 10° S
Cosmos 1726 3.5 02:46:23 10° N 02:49:36 37° ENE 02:52:49 10° SE
PAYLOAD A 4.2 02:45:19 10° N 02:50:03 48° WNW 02:52:13 29° SW
H-2A R/B 3.7 02:46:50 10° NNE 02:50:11 43° E 02:53:30 10° S
COSMOS 2428 3.1 02:45:23 10° NW 02:50:36 38° WSW 02:55:49 10° S
ERS-2 4.3 02:50:09 10° NE 02:52:42 22° E 02:55:14 10° SSE
CBERS-1 3.9 02:48:21 10° N 02:53:27 71° WNW 02:58:27 11° SSW
CZ-2C R/B 2.9 02:51:20 10° N 02:55:40 36° WNW 02:56:50 31° W
USA 215 3.2 02:50:17 10° SE 02:56:48 66° SW 03:03:20 10° NW
ALOS 4.0 02:53:59 10° NNW 02:56:20 17° NW 02:56:20 17° NW
Cosmos 1151 Rocket 3.0 02:54:47 19° SSW 02:57:44 60° W 03:02:05 10° N
Meteor 2-20 Rocket 4.4 02:56:11 10° N 03:02:29 88° E 03:08:29 10° S
Cosmos 2227 Rocket 2.8 02:58:58 10° S 03:04:31 59° ESE 03:10:07 10° NNE
Cosmos 1386 Rocket 4.4 02:59:38 10° SSW 03:05:54 68° W 03:12:06 10° N
ARIANE 5 R/B 2.9 03:01:43 10° NNE 03:06:43 65° ESE 03:11:39 10° S
Cosmos 1733 3.9 03:04:47 10° N 03:08:26 53° E 03:12:01 10° SSE
Cosmos 1666 Rocket 3.4 03:04:06 10° NNW 03:08:28 72° W 03:12:46 10° S
Cosmos 1328 Rocket 3.6 03:04:15 10° S 03:08:39 86° ESE 03:13:04 10° N
Cosmos 44 Rocket 3.4 03:05:11 20° SW 03:08:43 71° NW 03:13:54 10° NNE
COSMO-SKYMED 1 3.9 03:06:29 10° SE 03:10:35 42° ENE 03:14:42 10° N
Meteor 2-20 4.5 03:04:38 10° NNW 03:10:41 59° W 03:16:41 10° S
Meteor 1-27 Rocket 3.8 03:05:48 10° SSW 03:11:17 55° WNW 03:16:57 10° N
DMSP B5D2-2 4.1 03:08:58 10° S 03:14:08 57° W 03:19:21 10° NNW
ATLAS 2AS CENTAUR R/B 4.4 03:09:32 10° WNW 03:14:40 20° NNW 03:19:40 10° NNE
CZ-2D R/B 4.1 03:16:34 10° NNE 03:20:53 62° E 03:25:12 10° S
Meteor 1-19 Rocket 4.2 03:15:25 10° SSW 03:20:53 58° WNW 03:26:17 10° N
Cosmos 1709 Rocket 4.0 03:15:24 10° S 03:21:47 86° W 03:28:11 10° N
Helios 1A 3.0 03:19:05 10° S 03:23:05 53° W 03:27:06 10° NNW
Cosmos 1269 Rocket 4.0 03:19:13 10° NNW 03:24:25 60° WSW 03:29:35 10° S
IRS-P3 4.2 03:19:14 10° NNE 03:24:37 84° ESE 03:29:57 10° SSW
Cosmos 614 Rocket 4.3 03:25:25 10° NNW 03:30:17 44° WSW 03:35:09 10° S
Meteor 2-4 Rocket 3.9 03:25:29 10° S 03:31:23 85° E 03:37:14 10° NNE
Cosmos 1140 Rocket 4.4 03:28:14 10° NNW 03:33:23 54° ENE 03:38:30 10° SE
Cosmos 1980 4.1 03:28:28 10° NW 03:33:45 41° WSW 03:39:00 10° S
Cosmos 1805 3.3 03:31:01 10° N 03:34:49 76° E 03:38:35 10° SSE
Cosmos 1745 Rocket 4.3 03:29:57 10° SSW 03:36:01 46° WNW 03:42:08 10° N
Cosmos 1633 Rocket 3.4 03:32:54 10° NNW 03:37:04 43° W 03:41:14 10° SSW
Cosmos 1484 Rocket 3.7 03:37:47 10° NNW 03:40:48 25° WNW 03:43:50 10° SW
ATLAS CENTAUR R/B 1.8 03:37:29 10° NNW 03:41:00 53° NE 03:44:30 10° SE
Meteor 1-18 Rocket 4.3 03:36:20 10° SSW 03:42:13 84° W 03:48:01 10° N
H-2A R/B 2.2 03:37:06 10° NNE 03:42:35 89° WNW 03:47:58 10° SSW
BREEZE-M DEB (TANK) 3.6 03:38:36 10° WSW 03:48:26 79° NNW 03:51:42 10° ENE
BlueWalker 3 4.0 03:48:24 10° WSW 03:49:56 12° SW 03:51:34 10° SSW
PSLV R/B 4.0 03:50:06 10° NNE 03:54:13 63° ESE 03:58:19 10° S
Cosmos 2251 Rocket 3.9 03:50:53 10° NNW 03:56:07 71° ENE 04:01:20 10° SSE
SAR-Lupe-2 4.4 03:52:55 10° NNE 03:56:28 56° ESE 03:59:58 10° S
SKYMED 2 3.6 03:54:19 10° S 03:58:36 61° W 04:02:55 10° NNW
Cosmos 2297 Rocket 3.0 03:56:54 10° WSW 04:01:58 33° NW 04:07:03 10° N
Cosmos 2074 Rocket 4.4 03:56:13 10° S 04:02:23 72° E 04:08:34 10° NNE
Cosmos 1939 Rocket 3.1 04:00:06 10° N 04:03:48 43° WNW 04:07:30 10° SW
USA 81 4.2 04:01:53 10° N 04:07:12 84° E 04:12:29 10° S
